Other Public Products
Issued by NWS Grand Forks, ND

Home | Current Version | Previous Version | Text Only | Print | Product List | Glossary Off
Versions: 1 2 3 4 5 6 7 8 9 10 11 12 13 14 15 16 17 18 19 20 21 22 23 24 25 26 27 28 29 30 31 32 33 34 35 36 37 38 39 40 41 42 43 44 45 46 47 48 49 50

000
FPUS83 KFGF 291731
OPUFGF
PRAIRIE TO PINES WEATHER ROUNDUP
NATIONAL WEATHER SERVICE EASTERN NORTH DAKOTA/GRAND FORKS ND
1200 PM CDT SAT AUG 29 2015

 **SATELLITE DATA USED TO AUGMENT SKY COVER AT AUTOMATED STATIONS**
 *****  WEATHER ACROSS EASTERN NORTH DAKOTA  *****

CITY           SKY/WX    TMP DP  RH WIND       PRES   REMARKS
GRAND FORKS    MOSUNNY   73  66  78 S6        29.91S
GRAND FORKS AF MOSUNNY   76  68  77 S2        29.91S
GRAND CITY NWS   N/A     73 N/A N/A S7          N/A
BUXTON         NOT AVBL
DEVILS LAKE    PTSUNNY   73  63  68 S5        29.91S
FARGO          PTSUNNY   75  64  68 S14       29.95S
WAHPETON ARPT  MOSUNNY   73  61  64 SE12      29.98F
$$

 *****  WEATHER ACROSS CENTRAL AND WESTERN NORTH DAKOTA  *****

CITY           SKY/WX    TMP DP  RH WIND       PRES   REMARKS
JAMESTOWN      MOSUNNY   74  67  78 SW6       29.93F
BISMARCK       CLOUDY    78  63  59 CALM      29.95F
MINOT          CLOUDY    80  58  46 SE6       29.89F HAZE
MINOT AFB      CLOUDY    78  58  50 S7        29.88F
GARRISON         N/A     79  59  50 S3        29.93F
WILLISTON      PTSUNNY   78  55  44 S6        29.89F HAZE
DICKINSON      SUNNY     90  39  16 S14       29.95F HAZE
HETTINGER      SUNNY     88  49  25 S9        30.00S HAZE
$$

 *****  OTHER OBSERVATIONS NORTHEAST NORTH DAKOTA  *****

CITY           SKY/WX    TMP DP  RH WIND       PRES   REMARKS
WALHALLA       FAIR      68  68 100 MISG      29.89S
LANGDON        FAIR      79  68  69 SW12      29.92S
CAVALIER       PTSUNNY   70  66  88 SE7       29.90S
GRAFTON        CLOUDY    68  68 100 SE8       29.91F
CANDO          FAIR      75  64  69 SW6       29.92F
FORT TOTTEN    NOT AVBL
ROLLA          FAIR      75  63  64 SW9       29.91F
RUGBY          FAIR      75  61  60 S5        29.90F HAZE
 ***** THE ABOVE OBSERVATIONS ARE NON NWS ARE NOT QUALITY
        CONTROLLED AND MAY MIS-REPORT RAIN FOR SNOW...
$$

 *****  OTHER OBSERVATIONS SOUTHEAST NORTH DAKOTA *****

CITY           SKY/WX    TMP DP  RH WIND       PRES   REMARKS
COOPERSTOWN    NOT AVBL
VALLEY CITY    FAIR      73  72  94 SW9       29.94S
OAKES            N/A     73  70  88 S13       29.96S
GWINNER        FAIR      77  68  73 S13       29.96F
SHEYENNE NWR     N/A     77  67  70 SW12      29.95S
BUFFALO        NOT AVBL
WYNDMERE         N/A     75  66  73 S9          N/A
 ***** THE ABOVE OBSERVATIONS ARE NON NWS ARE NOT QUALITY
       CONTROLLED AND MAY MIS-REPORT RAIN FOR SNOW...
$$

  *****  WEATHER ACROSS NORTHERN MINNESOTA  *****

CITY           SKY/WX    TMP DP  RH WIND       PRES   REMARKS
FLAG ISLAND    FOG       66  64  94 SE8       29.94F VSB 1
WARROAD        CLOUDY    68  64  88 SE7       29.96S
ROSEAU         CLOUDY    68  63  83 S9        29.95S
HALLOCK        CLOUDY    66  66 100 SE10      29.91F
THF RVR FALLS  PTSUNNY  N/A N/A N/A S7        29.94F
HALSTAD        NOT AVBL
FOSSTON        MOSUNNY   72  63  73 S12       29.97F
BAUDETTE       CLOUDY    69  65  86 S8        29.97S
WASKISH        CLOUDY    70  64  83 CALM      29.98F
CROOKSTON      PTSUNNY   73  66  78 S12       29.94S
$$
  *****  WEATHER ACROSS CENTRAL AND WEST MINNESOTA  *****

CITY           SKY/WX    TMP DP  RH WIND       PRES   REMARKS
BEMIDJI        SUNNY     73  64  73 SW8       29.99F
PARK RAPIDS    SUNNY     73  61  65 S10       30.01F
WADENA         SUNNY     73  61  64 SW10      30.01F
DETROIT LAKES  SUNNY     73  63  68 S8        30.01S
MOORHEAD       PTSUNNY   73  64  73 S12       29.96F
FERGUS FALLS   SUNNY     73  63  68 S13       29.99F
ELBOW LAKE     FAIR      70  61  73 S15       30.01S
MORRIS MN      SUNNY     73  63  68 S12       30.02F
STAPLES        SUNNY     72  59  64 S10       30.02F
WHEATON        SUNNY     72  64  78 S12       30.01F
$$
  *****  WEATHER ELSEWHERE ACROSS MINNESOTA  *****

CITY           SKY/WX    TMP DP  RH WIND       PRES   REMARKS
DULUTH         CLOUDY    70  58  65 SW9       30.04S
INTRNTL FALLS  PTSUNNY   74  66  76 CALM      29.98S
ELY            CLOUDY    64  61  88 W8        30.03S
CLOQUET        CLOUDY    68  55  64 SW7       30.05S
BRAINERD       MOSUNNY   68  58  70 S10       30.04F
HIBBING        CLOUDY    67  59  75 S7        30.04S
ALEXANDRIA     SUNNY     70  59  68 SW13      30.05F
SAINT CLOUD    SUNNY     68  59  73 S5        30.06S
MINNEAPOLIS    CLOUDY    63  59  87 SE5       30.07F
$$

  *****  WEATHER ACROSS SOUTH DAKOTA  *****

CITY           SKY/WX    TMP DP  RH WIND       PRES   REMARKS
SIOUX FALLS    MOSUNNY   66  59  78 VRB6      30.08S
BROOKINGS      SUNNY     70  61  73 S9        30.08F
WATERTOWN      MOSUNNY   71  63  75 S12       30.04S
HURON          SUNNY     74  66  76 S13       30.01F
SISSETON         N/A     78  65  63 S9        29.97F
ABERDEEN       SUNNY     74  66  76 S13       29.98S
MITCHELL       MOSUNNY   74  66  76 S8        30.05F
PIERRE         SUNNY     80  61  52 SW6       29.99S
MOBRIDGE       SUNNY     79  65  62 SE6       29.95F
RAPID CITY     SUNNY     81  60  48 SE6       30.05F
$$

  *****  SOME WEATHER IN NEARBY STATES *****

CITY           SKY/WX    TMP DP  RH WIND       PRES   REMARKS
GLASGOW MT     CLOUDY    76  43  30 SE5       29.88F HAZE
GREAT FALLS MT CLOUDY    82  39  21 SW13      29.87F HAZE
CHEYENNE WY    SUNNY     80  42  25 S13G21    30.30F
SCOTTSBLUFF NE SUNNY     77  54  44 E7        30.17S
OMAHA NE       CLOUDY    64  59  83 N7        30.09R
DES MOINES IA  CLOUDY    70  63  78 N6        30.04S
DAVENPORT IA   CLOUDY    73  67  81 CALM      30.01S
CHICAGO IL     LGT RAIN  67  65  93 S10       30.02F FOG
EAU CLAIRE WI  CLOUDY    63  58  83 CALM      30.07S
LA CROSSE WI   CLOUDY    67  60  78 CALM      30.06R
$$

  *****  SOME NATIONAL WEATHER *****

CITY           SKY/WX    TMP DP  RH WIND       PRES   REMARKS
LA GUARDIA NY  PTSUNNY   82  53  36 NW13      30.17F
RALEIGH NC     PTSUNNY   83  60  45 E8        30.22F
ATLANTA GA     LGT RAIN  78  67  68 E10       30.22F
NEW ORLEANS LA MOSUNNY   87  66  49 S8        30.07S
OKLAHOMA CITY  PTSUNNY   86  69  56 N12       30.03S HX  90
ALBUQUERQUE NM MOSUNNY   78  51  38 N9        30.31F
SALT LAKE CITY PTSUNNY   88  40  18 S16G25    30.07R
LOS ANGELES CA MOSUNNY   81  67  62 VRB3      29.91R
BOISE ID       CLOUDY    83  43  24 SE8       29.88R
SEATTLE WA     CLOUDY    68  54  60 S23G31    29.58F
$$

*** WEATHER ACROSS MANITOBA...SASKATCHEWAN AND ONTARIO ***
                ***ONTARIO***

CITY           SKY/WX    TMP DP  RH WIND       PRES   REMARKS
GERALDTON      CLOUDY    66  63  88 S5        29.96  FOG
THUNDER BAY    CLOUDY    70  63  78 W5        29.98S
SIOUX LOOKOUT  MOSUNNY   70  64  83 SW7       29.98S
TORONTO        CLOUDY    73  61  64 W5        30.14F
BIG TROUT LK   SUNNY     77  59  53 W13       29.77F
PICKLE LAKE    MOSUNNY   77  61  57 W7        29.92F
DRYDEN         SUNNY     73  64  73 S7        29.97S
KENORA         PTSUNNY   75  66  73 S7        29.96S
$$
                *** MANITOBA***

CITY           SKY/WX    TMP DP  RH WIND       PRES   REMARKS
BRANDON        CLOUDY    68  66  94 E5        29.86F FOG
DAUPHIN        SUNNY     81  64  57 S8        29.76F
ISLAND LAKE    MOSUNNY   77  59  53 SW6       29.79S
PILOT MOUND      N/A     75  68  78 S13         N/A
THE PAS        CLOUDY    70  63  78 S14       29.61F
THOMPSON       CLOUDY    68  59  73 VRB2      29.67F
WINNIPEG       CLOUDY    70  68  94 S12       29.89S
LYNN LAKE      PTSUNNY   64  52  63 MISG      29.66F
CHURCHILL      CLOUDY    52  50  93 NE12      29.69R FOG
GILLAM         CLOUDY    64  55  72 NW6       29.70
$$
                ***SASKATCHEWAN***

CITY           SKY/WX    TMP DP  RH WIND       PRES   REMARKS
ESTEVAN        CLOUDY    77  52  41 SW14      29.86R SMOKE
KINDERSLEY     PTSUNNY   73  50  43 SW7       29.80S
LLOYDMINSTER   PTSUNNY   68  55  64 W6        29.75S
PRINCE ALBERT  CLOUDY    70  57  64 W12       29.65R SMOKE
REGINA         PTSUNNY   77  57  50 S7        29.82S SMOKE


USA.gov is the U.S. government's official web portal to all federal, state and local government web resources and services.